FW8756 Weather Reports


Display with metric or nautical units.
time (UTC)temp
F
wind
direction
speed
MPH
gust
MPH
rain 1hr
in
rain 24hr
in
rain mn
in
humidity
%
barometer
mb
20260506084454 76 180 2.0 3.0 0.00 0.00 0.00 88 1007.1
20260506083950 76 196 2.0 3.0 0.00 0.00 0.00 88 1006.9
20260506083448 76 121 3.0 6.0 0.00 0.00 0.00 88 1006.9
20260506082945 76 166 0.0 1.0 0.00 0.00 0.00 88 1007.0
20260506082442 76 160 0.0 0.0 0.00 0.00 0.00 88 1007.1
20260506081938 76 154 2.0 2.0 0.00 0.00 0.00 88 1007.1
20260506081436 76 142 0.0 0.0 0.00 0.00 0.00 88 1007.0
20260506080933 76 171 1.0 2.0 0.00 0.00 0.00 88 1006.9
20260506080430 76 153 1.0 2.0 0.00 0.00 0.00 88 1007.0
20260506073414 77 170 0.0 1.0 0.00 0.00 0.00 88 1007.3
20260506072911 77 156 1.0 1.0 0.00 0.00 0.00 87 1007.7
20260506072408 77 171 1.0 1.0 0.00 0.00 0.00 87 1007.4
20260506071906 77 135 1.0 2.0 0.00 0.00 0.00 87 1007.6
20260506071404 77 152 0.0 0.0 0.00 0.00 0.00 87 1007.9
20260506070901 77 146 0.0 0.0 0.00 0.00 0.00 87 1007.8
20260506070357 77 154 0.0 0.0 0.00 0.00 0.00 87 1007.9
20260506062335 77 335 3.0 3.0 0.00 0.00 0.00 86 1008.0
20260506061830 77 145 0.0 0.0 0.00 0.00 0.00 86 1007.9
20260506061327 77 158 0.0 0.0 0.00 0.00 0.00 86 1007.7
20260506060826 77 192 1.0 1.0 0.00 0.00 0.00 86 1008.0
20260506060323 77 145 0.0 0.0 0.00 0.00 0.00 86 1007.8
20260506051255 78 164 0.0 0.0 0.00 0.00 0.00 85 1008.2
20260506050753 78 129 3.0 6.0 0.00 0.00 0.00 85 1007.9
20260506050250 78 164 0.0 0.0 0.00 0.00 0.00 85 1007.9
20260506044741 78 183 0.0 1.0 0.00 0.00 0.00 84 1007.9
20260506044238 78 147 1.0 2.0 0.00 0.00 0.00 84 1007.8
20260506043735 78 152 0.0 0.0 0.00 0.00 0.00 84 1007.9
20260506043233 78 159 0.0 0.0 0.00 0.00 0.00 84 1007.8
20260506042731 78 144 1.0 3.0 0.00 0.00 0.00 84 1007.6
20260506042229 78 148 2.0 3.0 0.00 0.00 0.00 84 1007.5
20260506041728 78 265 5.0 6.0 0.00 0.00 0.00 84 1007.4
20260506041224 78 155 0.0 0.0 0.00 0.00 0.00 84 1007.4
20260506040722 78 151 1.0 2.0 0.00 0.00 0.00 83 1007.3
20260506040219 78 157 1.0 2.0 0.00 0.00 0.00 83 1007.5
20260506035715 78 157 2.0 2.0 0.00 0.00 0.00 83 1007.5
20260506035212 78 178 4.0 6.0 0.00 0.00 0.00 83 1007.3
20260506034709 78 162 1.0 1.0 0.00 0.00 0.00 83 1007.4
20260506034206 78 140 0.0 0.0 0.00 0.00 0.00 82 1007.2
20260506033703 78 186 5.0 9.0 0.00 0.00 0.00 82 1007.3
20260506033200 78 141 0.0 0.0 0.00 0.00 0.00 82 1007.5
20260506032657 79 170 0.0 0.0 0.00 0.00 0.00 82 1007.4
20260506032154 79 183 2.0 3.0 0.00 0.00 0.00 82 1007.4
20260506031651 79 169 0.0 0.0 0.00 0.00 0.00 82 1007.1
20260506031148 79 174 0.0 0.0 0.00 0.00 0.00 82 1007.3
20260506030647 79 139 3.0 5.0 0.00 0.00 0.00 82 1006.9
20260506030144 79 178 0.0 1.0 0.00 0.00 0.00 82 1007.1
20260506025640 79 153 0.0 0.0 0.00 0.00 0.00 81 1007.2
20260506025136 79 160 0.0 0.0 0.00 0.00 0.00 81 1007.0
20260506024634 79 162 0.0 1.0 0.00 0.00 0.00 81 1007.3
20260506024130 79 179 0.0 0.0 0.00 0.00 0.00 81 1007.0
20260506023626 79 173 0.0 0.0 0.00 0.00 0.00 81 1006.8
20260506023124 79 116 3.0 3.0 0.00 0.00 0.00 81 1006.7
20260506022621 79 164 3.0 3.0 0.00 0.00 0.00 81 1006.7
20260506022118 79 170 2.0 2.0 0.00 0.00 0.00 81 1006.6
20260506021616 79 161 1.0 1.0 0.00 0.00 0.00 81 1006.6
20260506021113 79 126 0.0 0.0 0.00 0.00 0.00 81 1006.6
20260506020610 80 163 0.0 0.0 0.00 0.00 0.00 81 1006.5
20260506020108 80 182 2.0 2.0 0.00 0.00 0.00 81 1006.3
20260506015605 80 155 0.0 0.0 0.00 0.00 0.00 81 1006.4
20260506015102 80 191 2.0 2.0 0.00 0.00 0.00 81 1006.3
20260506014600 80 159 1.0 2.0 0.00 0.00 0.00 81 1006.0
20260506014055 80 168 2.0 3.0 0.00 0.00 0.00 81 1006.2
20260506013553 80 153 0.0 0.0 0.00 0.00 0.00 81 1005.8
20260506013050 80 162 0.0 0.0 0.00 0.00 0.00 80 1005.9
20260506012546 80 152 0.0 0.0 0.00 0.00 0.00 80 1006.0
20260506012043 80 177 2.0 2.0 0.00 0.00 0.00 80 1005.7
20260506011541 80 220 0.0 0.0 0.00 0.00 0.00 79 1005.7
20260506011036 80 156 0.0 0.0 0.00 0.00 0.00 79 1005.6
20260506010531 80 165 2.0 3.0 0.00 0.00 0.00 79 1005.5
20260506010027 80 218 2.0 3.0 0.00 0.00 0.00 79 1005.7
20260506005524 80 158 0.0 0.0 0.00 0.00 0.00 79 1005.3
20260506005020 80 212 1.0 2.0 0.00 0.00 0.00 79 1005.6
20260506004517 80 146 0.0 0.0 0.00 0.00 0.00 79 1005.3
20260506004014 80 155 0.0 0.0 0.00 0.00 0.00 79 1005.4
20260506003510 81 88 0.0 2.0 0.00 0.00 0.00 79 1005.1
20260506003006 81 152 0.0 0.0 0.00 0.00 0.00 78 1005.3
20260506002502 81 150 0.0 0.0 0.00 0.00 0.00 78 1005.1
20260506001958 81 189 1.0 1.0 0.00 0.00 0.00 78 1005.2
20260506001455 81 210 1.0 1.0 0.00 0.00 0.00 78 1005.6
20260506000952 81 207 0.0 1.0 0.00 0.00 0.00 78 1005.2
20260506000449 82 160 0.0 0.0 0.00 0.00 0.00 78 1005.2
20260505235946 82 155 0.0 0.0 0.00 0.00 0.00 78 1005.3
20260505235445 82 172 0.0 0.0 0.00 0.00 0.00 78 1005.2
20260505234941 82 151 0.0 0.0 0.00 0.00 0.00 78 1005.3
20260505234439 82 158 0.0 1.0 0.00 0.00 0.00 77 1005.1
20260505233935 82 245 2.0 2.0 0.00 0.00 0.00 77 1005.2
20260505233433 82 168 0.0 0.0 0.00 0.00 0.00 77 1005.4
20260505232930 82 172 1.0 1.0 0.00 0.00 0.00 77 1005.3
20260505232428 83 149 0.0 0.0 0.00 0.00 0.00 77 1005.1
20260505231925 83 150 0.0 0.0 0.00 0.00 0.00 77 1005.2
20260505231422 82 139 0.0 0.0 0.00 0.00 0.00 77 1005.4
20260505230920 82 144 4.0 5.0 0.00 0.00 0.00 76 1005.3
20260505230418 83 271 1.0 2.0 0.00 0.00 0.00 76 1005.4
20260505225914 83 10 1.0 2.0 0.00 0.00 0.00 76 1005.3
20260505225411 83 173 0.0 1.0 0.00 0.00 0.00 76 1005.3
20260505224906 84 106 0.0 0.0 0.00 0.00 0.00 75 1005.3
20260505224404 84 272 2.0 3.0 0.00 0.00 0.00 75 1005.3
20260505223901 84 184 2.0 3.0 0.00 0.00 0.00 75 1004.9
20260505223358 84 204 3.0 3.0 0.00 0.00 0.00 75 1005.2
20260505222853 84 199 3.0 3.0 0.00 0.00 0.00 74 1005.3
20260505222350 84 161 1.0 1.0 0.00 0.00 0.00 74 1005.2
20260505221847 84 224 3.0 5.0 0.00 0.00 0.00 74 1005.1
20260505221344 84 154 0.0 0.0 0.00 0.00 0.00 75 1005.3
20260505220841 85 191 6.0 8.0 0.00 0.00 0.00 73 1005.1
20260505220338 85 300 3.0 3.0 0.00 0.00 0.00 73 1005.3
20260505215836 85 191 3.0 5.0 0.00 0.00 0.00 73 1005.2
20260505215333 85 243 2.0 3.0 0.00 0.00 0.00 74 1005.2
20260505214831 85 199 5.0 8.0 0.00 0.00 0.00 73 1005.5
20260505214329 84 182 2.0 3.0 0.00 0.00 0.00 75 1005.6
20260505213825 84 149 0.0 1.0 0.00 0.00 0.00 74 1005.8
20260505213323 85 198 3.0 3.0 0.00 0.00 0.00 74 1005.8
20260505212819 85 167 3.0 3.0 0.00 0.00 0.00 74 1005.9
20260505212317 86 195 4.0 7.0 0.00 0.00 0.00 72 1005.8
20260505211812 85 131 2.0 2.0 0.00 0.00 0.00 74 1005.8
20260505211310 87 240 1.0 3.0 0.00 0.00 0.00 72 1005.9
20260505210806 87 238 1.0 2.0 0.00 0.00 0.00 73 1005.8
20260505210303 85 261 1.0 3.0 0.00 0.00 0.00 73 1006.0
20260505205800 85 268 1.0 2.0 0.00 0.00 0.00 73 1006.1
20260505205259 85 228 2.0 3.0 0.00 0.00 0.00 74 1006.1
20260505204755 85 180 3.0 5.0 0.00 0.00 0.00 73 1006.1
20260505204253 85 296 3.0 5.0 0.00 0.00 0.00 73 1006.4
20260505203750 86 304 1.0 2.0 0.00 0.00 0.00 73 1006.4
20260505203247 85 109 1.0 2.0 0.00 0.00 0.00 74 1006.7
20260505202742 85 147 0.0 1.0 0.00 0.00 0.00 74 1006.8
20260505202239 85 260 4.0 7.0 0.00 0.00 0.00 73 1006.5
20260505201735 85 237 4.0 5.0 0.00 0.00 0.00 73 1006.8
20260505201233 84 183 1.0 2.0 0.00 0.00 0.00 74 1006.7
20260505200732 84 200 1.0 1.0 0.00 0.00 0.00 74 1006.9
20260505200228 85 273 4.0 5.0 0.00 0.00 0.00 74 1007.2
20260505195723 85 282 3.0 5.0 0.00 0.00 0.00 74 1006.9
20260505195221 84 111 0.0 0.0 0.00 0.00 0.00 75 1007.2
20260505194719 86 302 1.0 2.0 0.00 0.00 0.00 74 1007.1
20260505194215 86 158 1.0 3.0 0.00 0.00 0.00 74 1007.2
20260505193710 85 251 3.0 5.0 0.00 0.00 0.00 74 1007.1
20260505193208 84 223 4.0 6.0 0.00 0.00 0.00 75 1007.0
20260505192707 83 265 4.0 5.0 0.00 0.00 0.00 75 1007.1
20260505192204 83 231 4.0 5.0 0.00 0.00 0.00 75 1007.0
20260505191702 83 232 1.0 3.0 0.00 0.00 0.00 76 1007.1
20260505191200 83 266 3.0 5.0 0.00 0.00 0.00 76 1007.3
20260505190656 83 139 3.0 5.0 0.00 0.00 0.00 75 1007.4
20260505190155 83 234 1.0 3.0 0.00 0.00 0.00 76 1007.3
20260505185653 83 155 1.0 2.0 0.00 0.00 0.00 76 1007.3
20260505185149 83 168 1.0 2.0 0.00 0.00 0.00 76 1007.3
20260505184645 83 259 5.0 6.0 0.00 0.00 0.00 76 1007.3
20260505184143 83 274 3.0 5.0 0.00 0.00 0.00 76 1007.6
20260505183639 82 198 3.0 5.0 0.00 0.00 0.00 76 1007.3
20260505183137 82 188 2.0 2.0 0.00 0.00 0.00 77 1007.7
20260505182633 82 161 3.0 5.0 0.00 0.00 0.00 77 1007.8
20260505182130 82 204 3.0 3.0 0.00 0.00 0.00 77 1007.7
20260505181626 82 169 2.0 2.0 0.00 0.00 0.00 78 1007.7
20260505181124 82 216 5.0 6.0 0.00 0.00 0.00 77 1007.7
20260505180620 81 157 1.0 2.0 0.00 0.00 0.00 78 1007.8
20260505180118 81 133 2.0 5.0 0.00 0.00 0.00 79 1007.7
20260505175613 81 151 1.0 2.0 0.00 0.00 0.00 79 1007.8
20260505175110 81 260 0.0 0.0 0.00 0.00 0.00 79 1008.1
20260505174607 81 155 2.0 3.0 0.00 0.00 0.00 79 1008.0
20260505174103 81 136 2.0 3.0 0.00 0.00 0.00 79 1007.9
20260505173559 81 174 1.0 2.0 0.00 0.00 0.00 79 1008.1
20260505173056 81 174 2.0 3.0 0.00 0.00 0.00 79 1008.0
20260505172554 81 253 4.0 6.0 0.00 0.00 0.00 78 1007.9
20260505172050 81 154 2.0 5.0 0.00 0.00 0.00 78 1008.0
20260505171545 82 169 1.0 2.0 0.00 0.00 0.00 78 1007.9
20260505171043 81 253 4.0 6.0 0.00 0.00 0.00 78 1007.8
20260505170539 80 190 3.0 5.0 0.00 0.00 0.00 79 1008.1
20260505170036 80 123 0.0 1.0 0.00 0.00 0.00 80 1008.3
20260505165531 80 258 2.0 5.0 0.00 0.00 0.00 80 1008.1
20260505165027 80 210 0.0 0.0 0.00 0.00 0.00 80 1008.2
20260505164523 80 252 1.0 2.0 0.00 0.00 0.00 80 1008.4
20260505164021 80 230 3.0 5.0 0.00 0.00 0.00 80 1008.1
20260505163519 79 246 1.0 3.0 0.00 0.00 0.00 81 1008.3
20260505163015 78 220 3.0 3.0 0.00 0.00 0.00 82 1008.2
20260505162509 78 267 4.0 5.0 0.00 0.00 0.00 82 1008.3
20260505162006 78 166 3.0 3.0 0.00 0.00 0.00 82 1008.3
20260505161503 78 198 2.0 2.0 0.00 0.00 0.00 82 1008.3
20260505161000 78 234 0.0 1.0 0.00 0.00 0.00 81 1008.4
20260505160458 78 234 1.0 2.0 0.00 0.00 0.00 82 1008.2
20260505152934 77 288 1.0 2.0 0.00 0.00 0.00 83 1008.1
20260505152431 77 166 0.0 1.0 0.00 0.00 0.00 83 1007.9
20260505151926 77 158 2.0 2.0 0.00 0.00 0.00 83 1007.9
20260505151422 77 233 4.0 6.0 0.00 0.00 0.00 83 1008.0
20260505150920 77 169 1.0 1.0 0.00 0.00 0.00 83 1007.9
20260505150416 77 158 1.0 3.0 0.00 0.00 0.00 83 1007.8
20260505140340 74 268 1.0 2.0 0.00 0.00 0.00 87 1007.9
20260505130304 73 204 3.0 5.0 0.00 0.00 0.00 88 1007.9
20260505124754 73 184 1.0 1.0 0.00 0.00 0.00 88 1007.6
20260505124251 73 231 0.0 1.0 0.00 0.00 0.00 89 1007.6
20260505123746 73 147 0.0 0.0 0.00 0.00 0.00 89 1007.2
20260505123244 72 153 1.0 2.0 0.00 0.00 0.00 89 1007.2
20260505122740 72 140 0.0 1.0 0.00 0.00 0.00 89 1006.9
20260505122237 72 151 0.0 1.0 0.00 0.00 0.00 89 1007.3
20260505121734 72 181 0.0 1.0 0.00 0.00 0.00 89 1007.2
20260505121231 72 153 0.0 1.0 0.00 0.00 0.00 89 1007.3
20260505120727 72 135 0.0 2.0 0.00 0.00 0.00 89 1007.4
20260505120223 72 129 0.0 0.0 0.00 0.00 0.00 89 1007.2
20260505115721 72 142 0.0 1.0 0.00 0.00 0.00 88 1007.3
20260505115219 72 170 1.0 1.0 0.00 0.00 0.00 88 1007.1
20260505114717 72 148 0.0 0.0 0.00 0.00 0.00 88 1007.4
20260505114213 72 204 2.0 3.0 0.00 0.00 0.00 88 1007.0
20260505113709 72 158 0.0 2.0 0.00 0.00 0.00 88 1007.1
20260505113206 72 166 2.0 5.0 0.00 0.00 0.00 88 1007.1
20260505112702 72 146 0.0 0.0 0.00 0.00 0.00 88 1007.1
20260505112200 72 162 0.0 0.0 0.00 0.00 0.00 88 1007.2
20260505111700 72 105 0.0 1.0 0.00 0.00 0.00 88 1007.2
20260505111156 72 204 0.0 1.0 0.00 0.00 0.00 88 1007.0
20260505110652 72 168 0.0 0.0 0.00 0.00 0.00 88 1007.1
20260505110149 72 211 0.0 0.0 0.00 0.00 0.00 88 1007.1
20260505102125 71 163 0.0 0.0 0.00 0.00 0.00 88 1007.1
20260505101624 71 140 0.0 0.0 0.00 0.00 0.00 88 1007.0
20260505101120 71 156 0.0 1.0 0.00 0.00 0.00 88 1007.3
20260505100616 71 203 0.0 1.0 0.00 0.00 0.00 88 1007.5
20260505100113 71 240 2.0 2.0 0.00 0.00 0.00 88 1007.5
20260505095609 71 173 0.0 0.0 0.00 0.00 0.00 88 1007.8
20260505095106 71 129 1.0 3.0 0.00 0.00 0.00 88 1007.6
20260505094602 71 156 0.0 0.0 0.00 0.00 0.00 87 1007.2
20260505094058 71 165 0.0 0.0 0.00 0.00 0.00 87 1007.2
20260505093555 71 176 0.0 1.0 0.00 0.00 0.00 87 1007.4
20260505093053 71 33 0.0 0.0 0.00 0.00 0.00 87 1007.3
20260505092550 71 10 1.0 1.0 0.00 0.00 0.00 87 1007.4
20260505092048 71 163 0.0 0.0 0.00 0.00 0.00 87 1007.5
20260505091544 71 189 0.0 0.0 0.00 0.00 0.00 87 1007.6
20260505091043 71 197 1.0 3.0 0.00 0.00 0.00 87 1007.4
20260505090541 71 172 1.0 2.0 0.00 0.00 0.00 87 1007.4
20260505090038 71 156 0.0 0.0 0.00 0.00 0.00 87 1007.6
20260505085536 71 206 0.0 0.0 0.00 0.00 0.00 87 1007.8
20260505085034 71 158 0.0 0.0 0.00 0.00 0.00 87 1007.7